Radioactive Concentration measured by Seawater Radiation Monitor near Fukushima Daiichi Nuclear Power Station
Date,Time,Cs137(Bq/L),Cs134(Bq/L),Total β(Bq/L)
2016/10/01,00:00,1.5,0.17,ND
2016/10/01,00:10,1.4,0.16,ND
2016/10/01,00:20,1.4,0.15,ND
2016/10/01,00:30,1.4,0.13,ND
2016/10/01,00:40,1.4,0.12,ND
2016/10/01,00:50,1.4,0.12,ND
2016/10/01,01:00,1.4,0.12,ND
2016/10/01,01:10,1.3,0.13,ND
2016/10/01,01:20,1.3,0.12,ND
2016/10/01,01:30,1.3,0.12,ND
2016/10/01,01:40,1.3,0.13,ND
2016/10/01,01:50,1.3,0.13,ND
2016/10/01,02:00,1.3,0.13,ND
2016/10/01,02:10,1.3,0.12,ND
2016/10/01,02:20,1.3,0.13,ND
2016/10/01,02:30,1.3,0.13,ND
2016/10/01,02:40,1.4,0.13,ND
2016/10/01,02:50,1.4,0.13,ND
2016/10/01,03:00,1.4,0.13,ND
2016/10/01,03:10,1.4,0.14,ND
2016/10/01,03:20,1.4,0.14,ND
2016/10/01,03:30,1.4,0.15,ND
2016/10/01,03:40,1.4,0.14,ND
2016/10/01,03:50,1.4,0.14,ND
2016/10/01,04:00,1.4,0.14,ND
2016/10/01,04:10,1.4,0.14,ND
2016/10/01,04:20,1.4,0.15,ND
2016/10/01,04:30,1.5,0.14,ND
2016/10/01,04:40,1.5,0.15,ND
2016/10/01,04:50,1.5,0.15,ND
2016/10/01,05:00,1.5,0.15,ND
2016/10/01,05:10,1.6,0.14,ND
2016/10/01,05:20,1.5,0.15,ND
2016/10/01,05:30,1.5,0.16,ND
2016/10/01,05:40,1.5,0.14,ND
2016/10/01,05:50,1.4,0.14,ND
2016/10/01,06:00,1.4,0.14,ND
2016/10/01,06:10,1.4,0.13,ND
2016/10/01,06:20,1.3,0.12,ND
2016/10/01,06:30,1.3,0.11,ND
2016/10/01,06:40,1.3,0.11,ND
2016/10/01,06:50,1.3,0.11,ND
2016/10/01,07:00,1.3,0.11,ND
2016/10/01,07:10,1.2,0.12,ND
2016/10/01,07:20,1.3,0.13,ND
2016/10/01,07:30,1.3,0.13,ND
2016/10/01,07:40,1.3,0.15,ND
2016/10/01,07:50,1.3,0.15,ND
2016/10/01,08:00,1.3,0.15,ND
2016/10/01,08:10,1.4,0.16,ND
2016/10/01,08:20,1.4,0.15,ND
2016/10/01,08:30,1.5,0.17,ND
2016/10/01,08:40,1.5,0.19,ND
2016/10/01,08:50,1.6,0.20,ND
2016/10/01,09:00,1.6,0.21,ND
2016/10/01,09:10,1.7,0.18,ND
2016/10/01,09:20,1.7,0.21,ND
2016/10/01,09:30,1.7,0.20,ND
2016/10/01,09:40,1.7,0.17,ND
2016/10/01,09:50,1.7,0.17,ND
2016/10/01,10:00,1.6,0.17,ND
2016/10/01,10:10,1.6,0.19,ND
2016/10/01,10:20,1.6,0.16,ND
2016/10/01,10:30,1.6,0.17,ND
2016/10/01,10:40,1.5,0.18,ND
2016/10/01,10:50,1.5,0.16,ND
2016/10/01,11:00,1.5,0.16,ND
2016/10/01,11:10,1.5,0.16,ND
2016/10/01,11:20,1.5,0.15,ND
2016/10/01,11:30,1.4,0.16,ND
2016/10/01,11:40,1.4,0.12,ND
2016/10/01,11:50,1.3,0.11,ND
2016/10/01,12:00,1.3,0.096,ND
2016/10/01,12:10,1.2,0.086,ND
2016/10/01,12:20,1.1,0.074,ND
2016/10/01,12:30,1.1,0.064,ND
2016/10/01,12:40,1.0,0.089,ND
2016/10/01,12:50,1.0,0.088,ND
2016/10/01,13:00,0.99,0.088,ND
2016/10/01,13:10,0.95,0.097,ND
2016/10/01,13:20,0.97,0.084,ND
2016/10/01,13:30,0.95,0.11,ND
2016/10/01,13:40,0.94,0.11,ND
2016/10/01,13:50,0.92,0.11,ND
2016/10/01,14:00,0.91,0.12,ND
2016/10/01,14:10,0.93,0.10,ND
2016/10/01,14:20,0.95,0.10,ND
2016/10/01,14:30,0.96,0.081,ND
2016/10/01,14:40,0.94,0.088,ND
2016/10/01,14:50,0.93,0.089,ND
2016/10/01,15:00,0.93,0.089,ND
2016/10/01,15:10,0.92,0.097,ND
2016/10/01,15:20,0.93,0.086,ND
2016/10/01,15:30,0.92,0.092,ND
2016/10/01,15:40,0.94,0.091,ND
2016/10/01,15:50,0.95,0.091,ND
2016/10/01,16:00,1.0,0.076,ND
2016/10/01,16:10,1.0,0.077,ND
2016/10/01,16:20,0.99,0.085,ND
2016/10/01,16:30,1.0,0.084,ND
2016/10/01,16:40,0.98,0.085,ND
2016/10/01,16:50,0.97,0.095,ND
2016/10/01,17:00,0.97,0.11,ND
2016/10/01,17:10,0.98,0.11,ND
2016/10/01,17:20,0.99,0.11,ND
2016/10/01,17:30,1.0,0.12,ND
2016/10/01,17:40,0.99,0.11,ND
2016/10/01,17:50,1.0,0.10,ND
2016/10/01,18:00,1.0,0.10,ND
2016/10/01,18:10,1.0,0.098,ND
2016/10/01,18:20,1.0,0.089,ND
2016/10/01,18:30,1.0,0.074,ND
2016/10/01,18:40,1.1,0.081,ND
2016/10/01,18:50,1.1,0.082,ND
2016/10/01,19:00,1.0,0.080,ND
2016/10/01,19:10,1.1,0.083,ND
2016/10/01,19:20,1.0,0.089,ND
2016/10/01,19:30,1.0,0.099,ND
2016/10/01,19:40,1.0,0.098,ND
2016/10/01,19:50,1.0,0.10,ND
2016/10/01,20:00,1.0,0.098,ND
2016/10/01,20:10,1.0,0.11,ND
2016/10/01,20:20,1.0,0.11,ND
2016/10/01,20:30,1.0,0.11,ND
2016/10/01,20:40,1.1,0.093,ND
2016/10/01,20:50,1.1,0.088,ND
2016/10/01,21:00,1.1,0.084,ND
2016/10/01,21:10,1.1,0.089,ND
2016/10/01,21:20,1.1,0.086,ND
2016/10/01,21:30,1.1,0.095,ND
2016/10/01,21:40,1.0,0.095,ND
2016/10/01,21:50,0.99,0.11,ND
2016/10/01,22:00,1.0,0.11,ND
2016/10/01,22:10,1.0,0.11,ND
2016/10/01,22:20,1.0,0.11,ND
2016/10/01,22:30,1.0,0.097,ND
2016/10/01,22:40,1.0,0.10,ND
2016/10/01,22:50,1.1,0.089,ND
2016/10/01,23:00,1.1,0.092,ND
2016/10/01,23:10,1.1,0.089,ND
2016/10/01,23:20,1.1,0.089,ND
2016/10/01,23:30,1.1,0.096,ND
2016/10/01,23:40,1.1,0.090,ND
2016/10/01,23:50,1.1,0.098,ND
